Year,Month,Day,Hour,Minute,Value (Times are PST for temperature in C)
2013,03,02,00,00,6.60
2013,03,02,00,01,6.60
2013,03,02,00,02,6.60
2013,03,02,00,03,6.60
2013,03,02,00,04,6.60
2013,03,02,00,05,6.60
2013,03,02,00,06,6.60
2013,03,02,00,07,6.60
2013,03,02,00,08,6.40
2013,03,02,00,09,6.40
2013,03,02,00,10,6.40
2013,03,02,00,11,6.40
2013,03,02,00,12,6.40
2013,03,02,00,13,6.40
2013,03,02,00,14,6.40
2013,03,02,00,15,6.40
2013,03,02,00,16,6.40
2013,03,02,00,17,6.40
2013,03,02,00,18,6.40
2013,03,02,00,19,6.40
2013,03,02,00,20,6.40
2013,03,02,00,21,6.40
2013,03,02,00,22,6.40
2013,03,02,00,23,6.40
2013,03,02,00,24,6.40
2013,03,02,00,25,6.40
2013,03,02,00,26,6.40
2013,03,02,00,27,6.40
2013,03,02,00,28,6.40
2013,03,02,00,29,6.40
2013,03,02,00,30,6.40
2013,03,02,00,31,6.40
2013,03,02,00,32,6.60
2013,03,02,00,33,6.60
2013,03,02,00,34,6.60
2013,03,02,00,35,6.60
2013,03,02,00,36,6.60
2013,03,02,00,37,6.60
2013,03,02,00,38,6.60
2013,03,02,00,39,6.60
2013,03,02,00,40,6.60
2013,03,02,00,41,6.60
2013,03,02,00,42,6.60
2013,03,02,00,43,6.60
2013,03,02,00,44,6.60
2013,03,02,00,45,6.60
2013,03,02,00,46,6.60
2013,03,02,00,47,6.60
2013,03,02,00,48,6.60
2013,03,02,00,49,6.60
2013,03,02,00,50,6.60
2013,03,02,00,51,6.60
2013,03,02,00,52,6.60
2013,03,02,00,53,6.40
2013,03,02,00,54,6.40
2013,03,02,00,55,6.40
2013,03,02,00,56,6.40
2013,03,02,00,57,6.40
2013,03,02,00,58,6.40
2013,03,02,00,59,6.40
2013,03,02,01,00,6.40
2013,03,02,01,01,6.40
2013,03,02,01,02,6.40
2013,03,02,01,03,6.40
2013,03,02,01,04,6.40
2013,03,02,01,05,6.40
2013,03,02,01,06,6.40
2013,03,02,01,07,6.40
2013,03,02,01,08,6.40
2013,03,02,01,09,6.40
2013,03,02,01,10,6.40
2013,03,02,01,11,6.40
2013,03,02,01,12,6.40
2013,03,02,01,13,6.40
2013,03,02,01,14,6.40
2013,03,02,01,15,6.40
2013,03,02,01,16,6.40
2013,03,02,01,17,6.40
2013,03,02,01,18,6.40
2013,03,02,01,19,6.40
2013,03,02,01,20,6.40
2013,03,02,01,21,6.40
2013,03,02,01,22,6.40
2013,03,02,01,23,6.40
2013,03,02,01,24,6.30
2013,03,02,01,25,6.30
2013,03,02,01,26,6.30
2013,03,02,01,27,6.30
2013,03,02,01,28,6.30
2013,03,02,01,29,6.30
2013,03,02,01,30,6.30
2013,03,02,01,31,6.30
2013,03,02,01,32,6.30
2013,03,02,01,33,6.30
2013,03,02,01,34,6.30
2013,03,02,01,35,6.30
2013,03,02,01,36,6.30
2013,03,02,01,37,6.30
2013,03,02,01,38,6.30
2013,03,02,01,39,6.30
2013,03,02,01,40,6.30
2013,03,02,01,41,6.30
2013,03,02,01,42,6.30
2013,03,02,01,43,6.30
2013,03,02,01,44,6.30
2013,03,02,01,45,6.30
2013,03,02,01,46,6.30
2013,03,02,01,47,6.30
2013,03,02,01,48,6.30
2013,03,02,01,49,6.20
2013,03,02,01,50,6.20
2013,03,02,01,51,6.20
2013,03,02,01,52,6.20
2013,03,02,01,53,6.20
2013,03,02,01,54,6.20
2013,03,02,01,55,6.20
2013,03,02,01,56,6.20
2013,03,02,01,57,6.20
2013,03,02,01,58,6.20
2013,03,02,01,59,6.20
2013,03,02,02,00,6.20
2013,03,02,02,01,6.20
2013,03,02,02,02,6.20
2013,03,02,02,03,6.20
2013,03,02,02,04,6.20
2013,03,02,02,05,6.20
2013,03,02,02,06,6.20
2013,03,02,02,07,6.20
2013,03,02,02,08,6.10
2013,03,02,02,09,6.10
2013,03,02,02,10,6.10
2013,03,02,02,11,6.10
2013,03,02,02,12,6.00
2013,03,02,02,13,6.00
2013,03,02,02,14,6.00
2013,03,02,02,15,6.00
2013,03,02,02,16,6.00
2013,03,02,02,17,6.00
2013,03,02,02,18,6.00
2013,03,02,02,19,6.00
2013,03,02,02,20,6.00
2013,03,02,02,21,6.00
2013,03,02,02,22,6.00
2013,03,02,02,23,6.00
2013,03,02,02,24,6.00
2013,03,02,02,25,6.00
2013,03,02,02,26,6.00
2013,03,02,02,27,6.00
2013,03,02,02,28,6.00
2013,03,02,02,29,6.00
2013,03,02,02,30,6.00
2013,03,02,02,31,6.00
2013,03,02,02,32,6.00
2013,03,02,02,33,5.90
2013,03,02,02,34,5.90
2013,03,02,02,35,6.00
2013,03,02,02,36,6.00
2013,03,02,02,37,6.00
2013,03,02,02,38,5.90
2013,03,02,02,39,5.90
2013,03,02,02,40,5.90
2013,03,02,02,41,5.90
2013,03,02,02,42,5.90
2013,03,02,02,43,5.90
2013,03,02,02,44,5.90
2013,03,02,02,45,6.00
2013,03,02,02,46,6.00
2013,03,02,02,47,6.00
2013,03,02,02,48,6.00
2013,03,02,02,49,6.00
2013,03,02,02,50,6.00
2013,03,02,02,51,6.00
2013,03,02,02,52,6.00
2013,03,02,02,53,6.00
2013,03,02,02,54,6.00
2013,03,02,02,55,6.00
2013,03,02,02,56,6.00
2013,03,02,02,57,6.00
2013,03,02,02,58,6.00
2013,03,02,02,59,6.00
2013,03,02,03,00,6.00
2013,03,02,03,01,6.00
2013,03,02,03,02,6.10
2013,03,02,03,03,6.10
2013,03,02,03,04,6.10
2013,03,02,03,05,6.10
2013,03,02,03,06,6.10
2013,03,02,03,07,6.10
2013,03,02,03,08,6.10
2013,03,02,03,09,6.10
2013,03,02,03,10,6.10
2013,03,02,03,11,6.10
2013,03,02,03,12,6.10
2013,03,02,03,13,6.10
2013,03,02,03,14,6.10
2013,03,02,03,15,6.10
2013,03,02,03,16,6.10
2013,03,02,03,17,6.00
2013,03,02,03,18,6.00
2013,03,02,03,19,6.00
2013,03,02,03,20,6.00
2013,03,02,03,21,6.00
2013,03,02,03,22,6.00
2013,03,02,03,23,6.00
2013,03,02,03,24,6.00
2013,03,02,03,25,6.00
2013,03,02,03,26,6.00
2013,03,02,03,27,5.90
2013,03,02,03,28,5.90
2013,03,02,03,29,5.90
2013,03,02,03,30,5.90
2013,03,02,03,31,5.90
2013,03,02,03,32,5.90
2013,03,02,03,33,5.90
2013,03,02,03,34,5.90
2013,03,02,03,35,5.90
2013,03,02,03,36,5.90
2013,03,02,03,37,5.90
2013,03,02,03,38,5.90
2013,03,02,03,39,5.90
2013,03,02,03,40,5.90
2013,03,02,03,41,5.90
2013,03,02,03,42,5.90
2013,03,02,03,43,5.90
2013,03,02,03,44,5.90
2013,03,02,03,45,5.90
2013,03,02,03,46,5.90
2013,03,02,03,47,5.90
2013,03,02,03,48,5.90
2013,03,02,03,49,5.90
2013,03,02,03,50,5.90
2013,03,02,03,51,5.80
2013,03,02,03,52,5.80
2013,03,02,03,53,5.80
2013,03,02,03,54,5.80
2013,03,02,03,55,5.80
2013,03,02,03,56,5.80
2013,03,02,03,57,5.80
2013,03,02,03,58,5.80
2013,03,02,03,59,5.80
2013,03,02,04,00,5.80
2013,03,02,04,01,5.80
2013,03,02,04,02,5.80
2013,03,02,04,03,5.80
2013,03,02,04,04,5.80
2013,03,02,04,05,5.80
2013,03,02,04,06,5.80
2013,03,02,04,07,5.80
2013,03,02,04,08,5.80
2013,03,02,04,09,5.80
2013,03,02,04,10,5.80
2013,03,02,04,11,5.80
2013,03,02,04,12,5.80
2013,03,02,04,13,5.80
2013,03,02,04,14,5.80
2013,03,02,04,15,5.80
2013,03,02,04,16,5.80
2013,03,02,04,17,5.80
2013,03,02,04,18,5.80
2013,03,02,04,19,5.80
2013,03,02,04,20,5.70
2013,03,02,04,21,5.70
2013,03,02,04,22,5.70
2013,03,02,04,23,5.70
2013,03,02,04,24,5.70
2013,03,02,04,25,5.70
2013,03,02,04,26,5.70
2013,03,02,04,27,5.70
2013,03,02,04,28,5.70
2013,03,02,04,29,5.70
2013,03,02,04,30,5.70
2013,03,02,04,31,5.70
2013,03,02,04,32,5.70
2013,03,02,04,33,5.70
2013,03,02,04,34,5.70
2013,03,02,04,35,5.70
2013,03,02,04,36,5.70
2013,03,02,04,37,5.70
2013,03,02,04,38,5.70
2013,03,02,04,39,5.70
2013,03,02,04,40,5.70
2013,03,02,04,41,5.70
2013,03,02,04,42,5.70
2013,03,02,04,43,5.70
2013,03,02,04,44,5.80
2013,03,02,04,45,5.80
2013,03,02,04,46,5.80
2013,03,02,04,47,5.80
2013,03,02,04,48,5.80
2013,03,02,04,49,5.80
2013,03,02,04,50,5.80
2013,03,02,04,51,5.80
2013,03,02,04,52,5.80
2013,03,02,04,53,5.70
2013,03,02,04,54,5.70
2013,03,02,04,55,5.70
2013,03,02,04,56,5.70
2013,03,02,04,57,5.70
2013,03,02,04,58,5.70
2013,03,02,04,59,5.70
2013,03,02,05,00,5.70
2013,03,02,05,01,5.70
2013,03,02,05,02,5.70
2013,03,02,05,03,5.70
2013,03,02,05,04,5.70
2013,03,02,05,05,5.70
2013,03,02,05,06,5.70
2013,03,02,05,07,5.70
2013,03,02,05,08,5.70
2013,03,02,05,09,5.70
2013,03,02,05,10,5.70
2013,03,02,05,11,5.70
2013,03,02,05,12,5.70
2013,03,02,05,13,5.70
2013,03,02,05,14,5.70
2013,03,02,05,15,5.70
2013,03,02,05,16,5.70
2013,03,02,05,17,5.70
2013,03,02,05,18,5.70
2013,03,02,05,19,5.70
2013,03,02,05,20,5.70
2013,03,02,05,21,5.70
2013,03,02,05,22,5.70
2013,03,02,05,23,5.70
2013,03,02,05,24,5.70
2013,03,02,05,25,5.70
2013,03,02,05,26,5.70
2013,03,02,05,27,5.70
2013,03,02,05,28,5.70
2013,03,02,05,29,5.70
2013,03,02,05,30,5.70
2013,03,02,05,31,5.70
2013,03,02,05,32,5.70
2013,03,02,05,33,5.70
2013,03,02,05,34,5.70
2013,03,02,05,35,5.70
2013,03,02,05,36,5.70
2013,03,02,05,37,5.70
2013,03,02,05,38,5.70
2013,03,02,05,39,5.70
2013,03,02,05,40,5.70
2013,03,02,05,41,5.70
2013,03,02,05,42,5.70
2013,03,02,05,43,5.70
2013,03,02,05,44,5.70
2013,03,02,05,45,5.70
2013,03,02,05,46,5.70
2013,03,02,05,47,5.70
2013,03,02,05,48,5.70
2013,03,02,05,49,5.70
2013,03,02,05,50,5.70
2013,03,02,05,51,5.70
2013,03,02,05,52,5.70
2013,03,02,05,53,5.70
2013,03,02,05,54,5.70
2013,03,02,05,55,5.70
2013,03,02,05,56,5.70
2013,03,02,05,57,5.70
2013,03,02,05,58,5.70
2013,03,02,05,59,5.70
2013,03,02,06,00,5.70
2013,03,02,06,01,5.70
2013,03,02,06,02,5.70
2013,03,02,06,03,5.70
2013,03,02,06,04,5.70
2013,03,02,06,05,5.70
2013,03,02,06,06,5.70
2013,03,02,06,07,5.70
2013,03,02,06,08,5.70
2013,03,02,06,09,5.70
2013,03,02,06,10,5.70
2013,03,02,06,11,5.70
2013,03,02,06,12,5.70
2013,03,02,06,13,5.60
2013,03,02,06,14,5.60
2013,03,02,06,15,5.60
2013,03,02,06,16,5.60
2013,03,02,06,17,5.60
2013,03,02,06,18,5.50
2013,03,02,06,19,5.50
2013,03,02,06,20,5.50
2013,03,02,06,21,5.50
2013,03,02,06,22,5.50
2013,03,02,06,23,5.50
2013,03,02,06,24,5.50
2013,03,02,06,25,5.50
2013,03,02,06,26,5.50
2013,03,02,06,27,5.50
2013,03,02,06,28,5.50
2013,03,02,06,29,5.50
2013,03,02,06,30,5.50
2013,03,02,06,31,5.50
2013,03,02,06,32,5.50
2013,03,02,06,33,5.50
2013,03,02,06,34,5.50
2013,03,02,06,35,5.50
2013,03,02,06,36,5.50
2013,03,02,06,37,5.50
2013,03,02,06,38,5.50
2013,03,02,06,39,5.50
2013,03,02,06,40,5.50
2013,03,02,06,41,5.50
2013,03,02,06,42,5.50
2013,03,02,06,43,5.50
2013,03,02,06,44,5.50
2013,03,02,06,45,5.50
2013,03,02,06,46,5.40
2013,03,02,06,47,5.40
2013,03,02,06,48,5.40
2013,03,02,06,49,5.40
2013,03,02,06,50,5.40
2013,03,02,06,51,5.40
2013,03,02,06,52,5.40
2013,03,02,06,53,5.40
2013,03,02,06,54,5.40
2013,03,02,06,55,5.40
2013,03,02,06,56,5.40
2013,03,02,06,57,5.40
2013,03,02,06,58,5.40
2013,03,02,06,59,5.40
2013,03,02,07,00,5.40
2013,03,02,07,01,5.40
2013,03,02,07,02,5.40
2013,03,02,07,03,5.40
2013,03,02,07,04,5.40
2013,03,02,07,05,5.40
2013,03,02,07,06,5.40
2013,03,02,07,07,5.40
2013,03,02,07,08,5.40
2013,03,02,07,09,5.40
2013,03,02,07,10,5.40
2013,03,02,07,11,5.40
2013,03,02,07,12,5.40
2013,03,02,07,13,5.40
2013,03,02,07,14,5.40
2013,03,02,07,15,5.40
2013,03,02,07,16,5.40
2013,03,02,07,17,5.40
2013,03,02,07,18,5.40
2013,03,02,07,19,5.40
2013,03,02,07,20,5.40
2013,03,02,07,21,5.40
2013,03,02,07,22,5.40
2013,03,02,07,23,5.40
2013,03,02,07,24,5.40
2013,03,02,07,25,5.40
2013,03,02,07,26,5.40
2013,03,02,07,27,5.40
2013,03,02,07,28,5.40
2013,03,02,07,29,5.40
2013,03,02,07,30,5.40
2013,03,02,07,31,5.40
2013,03,02,07,32,5.40
2013,03,02,07,33,5.40
2013,03,02,07,34,5.40
2013,03,02,07,35,5.40
2013,03,02,07,36,5.40
2013,03,02,07,37,5.40
2013,03,02,07,38,5.40
2013,03,02,07,39,5.40
2013,03,02,07,40,5.40
2013,03,02,07,41,5.40
2013,03,02,07,42,5.40
2013,03,02,07,43,5.40
2013,03,02,07,44,5.40
2013,03,02,07,45,5.40
2013,03,02,07,46,5.40
2013,03,02,07,47,5.40
2013,03,02,07,48,5.40
2013,03,02,07,49,5.40
2013,03,02,07,50,5.40
2013,03,02,07,51,5.40
2013,03,02,07,52,5.40
2013,03,02,07,53,5.40
2013,03,02,07,54,5.40
2013,03,02,07,55,5.40
2013,03,02,07,56,5.40
2013,03,02,07,57,5.40
2013,03,02,07,58,5.40
2013,03,02,07,59,5.40
2013,03,02,08,00,5.40
2013,03,02,08,01,5.40
2013,03,02,08,02,5.40
2013,03,02,08,03,5.40
2013,03,02,08,04,5.40
2013,03,02,08,05,5.40
2013,03,02,08,06,5.40
2013,03,02,08,07,5.40
2013,03,02,08,08,5.30
2013,03,02,08,09,5.30
2013,03,02,08,10,5.30
2013,03,02,08,11,5.30
2013,03,02,08,12,5.30
2013,03,02,08,13,5.30
2013,03,02,08,14,5.30
2013,03,02,08,15,5.30
2013,03,02,08,16,5.30
2013,03,02,08,17,5.30
2013,03,02,08,18,5.30
2013,03,02,08,19,5.30
2013,03,02,08,20,5.30
2013,03,02,08,21,5.30
2013,03,02,08,22,5.30
2013,03,02,08,23,5.30
2013,03,02,08,24,5.30
2013,03,02,08,25,5.30
2013,03,02,08,26,5.30
2013,03,02,08,27,5.30
2013,03,02,08,28,5.30
2013,03,02,08,29,5.40
2013,03,02,08,30,5.40
2013,03,02,08,31,5.40
2013,03,02,08,32,5.40
2013,03,02,08,33,5.40
2013,03,02,08,34,5.40
2013,03,02,08,35,5.40
2013,03,02,08,36,5.40
2013,03,02,08,37,5.40
2013,03,02,08,38,5.40
2013,03,02,08,39,5.40
2013,03,02,08,40,5.40
2013,03,02,08,41,5.40
2013,03,02,08,42,5.40
2013,03,02,08,43,5.40
2013,03,02,08,44,5.40
2013,03,02,08,45,5.40
2013,03,02,08,46,5.40
2013,03,02,08,47,5.40
2013,03,02,08,48,5.40
2013,03,02,08,49,5.50
2013,03,02,08,50,5.50
2013,03,02,08,51,5.50
2013,03,02,08,52,5.50
2013,03,02,08,53,5.50
2013,03,02,08,54,5.50
2013,03,02,08,55,5.50
2013,03,02,08,56,5.50
2013,03,02,08,57,5.50
2013,03,02,08,58,5.50
2013,03,02,08,59,5.50
2013,03,02,09,00,5.50
2013,03,02,09,01,5.50
2013,03,02,09,02,5.50
2013,03,02,09,03,5.50
2013,03,02,09,04,5.50
2013,03,02,09,05,5.50
2013,03,02,09,06,5.50
2013,03,02,09,07,5.50
2013,03,02,09,08,5.50
2013,03,02,09,09,5.50
2013,03,02,09,10,5.50
2013,03,02,09,11,5.50
2013,03,02,09,12,5.50
2013,03,02,09,13,5.50
2013,03,02,09,14,5.50
2013,03,02,09,15,5.50
2013,03,02,09,16,5.60
2013,03,02,09,17,5.60
2013,03,02,09,18,5.60
2013,03,02,09,19,5.60
2013,03,02,09,20,5.60
2013,03,02,09,21,5.70
2013,03,02,09,22,5.70
2013,03,02,09,23,5.70
2013,03,02,09,24,5.70
2013,03,02,09,25,5.70
2013,03,02,09,26,5.70
2013,03,02,09,27,5.70
2013,03,02,09,28,5.70
2013,03,02,09,29,5.70
2013,03,02,09,30,5.70
2013,03,02,09,31,5.70
2013,03,02,09,32,5.70
2013,03,02,09,33,5.60
2013,03,02,09,34,5.60
2013,03,02,09,35,5.60
2013,03,02,09,36,5.60
2013,03,02,09,37,5.60
2013,03,02,09,38,5.50
2013,03,02,09,39,5.50
2013,03,02,09,40,5.50
2013,03,02,09,41,5.50
2013,03,02,09,42,5.50
2013,03,02,09,43,5.50
2013,03,02,09,44,5.50
2013,03,02,09,45,5.50
2013,03,02,09,46,5.50
2013,03,02,09,47,5.50
2013,03,02,09,48,5.50
2013,03,02,09,49,5.50
2013,03,02,09,50,5.50
2013,03,02,09,51,5.50
2013,03,02,09,52,5.50
2013,03,02,09,53,5.50
2013,03,02,09,54,5.50
2013,03,02,09,55,5.50
2013,03,02,09,56,5.50
2013,03,02,09,57,5.50
2013,03,02,09,58,5.50
2013,03,02,09,59,5.50
2013,03,02,10,00,5.50
2013,03,02,10,01,5.60
2013,03,02,10,02,5.70
2013,03,02,10,03,5.70
2013,03,02,10,04,5.70
2013,03,02,10,05,5.70
2013,03,02,10,06,5.70
2013,03,02,10,07,5.70
2013,03,02,10,08,5.70
2013,03,02,10,09,5.70
2013,03,02,10,10,5.70
2013,03,02,10,11,5.70
2013,03,02,10,12,5.70
2013,03,02,10,13,5.70
2013,03,02,10,14,5.70
2013,03,02,10,15,5.70
2013,03,02,10,16,5.70
2013,03,02,10,17,5.80
2013,03,02,10,18,5.80
2013,03,02,10,19,5.80
2013,03,02,10,20,5.80
2013,03,02,10,21,5.80
2013,03,02,10,22,5.90
2013,03,02,10,23,5.90
2013,03,02,10,24,5.90
2013,03,02,10,25,5.80
2013,03,02,10,26,5.80
2013,03,02,10,27,5.80
2013,03,02,10,28,5.70
2013,03,02,10,29,5.70
2013,03,02,10,30,5.70
2013,03,02,10,31,5.80
2013,03,02,10,32,5.70
2013,03,02,10,33,5.70
2013,03,02,10,34,5.70
2013,03,02,10,35,5.70
2013,03,02,10,36,5.70
2013,03,02,10,37,5.70
2013,03,02,10,38,5.70
2013,03,02,10,39,5.70
2013,03,02,10,40,5.70
2013,03,02,10,41,5.70
2013,03,02,10,42,5.70
2013,03,02,10,43,5.70
2013,03,02,10,44,5.70
2013,03,02,10,45,5.70
2013,03,02,10,46,5.60
2013,03,02,10,47,5.60
2013,03,02,10,48,5.60
2013,03,02,10,49,5.60
2013,03,02,10,50,5.60
2013,03,02,10,51,5.60
2013,03,02,10,52,5.60
2013,03,02,10,53,5.60
2013,03,02,10,54,5.70
2013,03,02,10,55,5.70
2013,03,02,10,56,5.70
2013,03,02,10,57,5.70
2013,03,02,10,58,5.70
2013,03,02,10,59,5.70
2013,03,02,11,00,5.70
2013,03,02,11,01,5.70
2013,03,02,11,02,5.70
2013,03,02,11,03,5.70
2013,03,02,11,04,5.70
2013,03,02,11,05,5.80
2013,03,02,11,06,5.80
2013,03,02,11,07,5.80
2013,03,02,11,08,5.80
2013,03,02,11,09,5.70
2013,03,02,11,10,5.70
2013,03,02,11,11,5.70
2013,03,02,11,12,5.70
2013,03,02,11,13,5.70
2013,03,02,11,14,5.70
2013,03,02,11,15,5.80
2013,03,02,11,16,5.80
2013,03,02,11,17,5.80
2013,03,02,11,18,5.80
2013,03,02,11,19,5.80
2013,03,02,11,20,5.80
2013,03,02,11,21,5.80
2013,03,02,11,22,5.80
2013,03,02,11,23,5.80
2013,03,02,11,24,5.80
2013,03,02,11,25,5.80
2013,03,02,11,26,5.90
2013,03,02,11,27,5.90
2013,03,02,11,28,5.90
2013,03,02,11,29,5.90
2013,03,02,11,30,6.00
2013,03,02,11,31,6.00
2013,03,02,11,32,6.00
2013,03,02,11,33,6.00
2013,03,02,11,34,6.10
2013,03,02,11,35,6.10
2013,03,02,11,36,6.10
2013,03,02,11,37,6.10
2013,03,02,11,38,6.10
2013,03,02,11,39,6.20
2013,03,02,11,40,6.10
2013,03,02,11,41,6.10
2013,03,02,11,42,6.10
2013,03,02,11,43,6.10
2013,03,02,11,44,6.10
2013,03,02,11,45,6.10
2013,03,02,11,46,6.10
2013,03,02,11,47,6.20
2013,03,02,11,48,6.20
2013,03,02,11,49,6.20
2013,03,02,11,50,6.20
2013,03,02,11,51,6.20
2013,03,02,11,52,6.20
2013,03,02,11,53,6.20
2013,03,02,11,54,6.20
2013,03,02,11,55,6.20
2013,03,02,11,56,6.30
2013,03,02,11,57,6.30
2013,03,02,11,58,6.40
2013,03,02,11,59,6.40
2013,03,02,12,00,6.40
2013,03,02,12,01,6.40
2013,03,02,12,02,6.40
2013,03,02,12,03,6.40
2013,03,02,12,04,6.40
2013,03,02,12,05,6.60
2013,03,02,12,06,6.60
2013,03,02,12,07,6.60
2013,03,02,12,08,6.60
2013,03,02,12,09,6.60
2013,03,02,12,10,6.60
2013,03,02,12,11,6.60
2013,03,02,12,12,6.60
2013,03,02,12,13,6.70
2013,03,02,12,14,6.70
2013,03,02,12,15,6.70
2013,03,02,12,16,6.70
2013,03,02,12,17,6.70
2013,03,02,12,18,6.60
2013,03,02,12,19,6.60
2013,03,02,12,20,6.70
2013,03,02,12,21,6.70
2013,03,02,12,22,6.70
2013,03,02,12,23,6.70
2013,03,02,12,24,6.70
2013,03,02,12,25,6.70
2013,03,02,12,26,6.60
2013,03,02,12,27,6.60
2013,03,02,12,28,6.60
2013,03,02,12,29,6.60
2013,03,02,12,30,6.60
2013,03,02,12,31,6.60
2013,03,02,12,32,6.60
2013,03,02,12,33,6.60
2013,03,02,12,34,6.70
2013,03,02,12,35,6.70
2013,03,02,12,36,6.70
2013,03,02,12,37,6.70
2013,03,02,12,38,6.80
2013,03,02,12,39,6.80
2013,03,02,12,40,6.80
2013,03,02,12,41,6.80
2013,03,02,12,42,6.80
2013,03,02,12,43,6.90
2013,03,02,12,44,6.90
2013,03,02,12,45,7.00
2013,03,02,12,46,7.00
2013,03,02,12,47,7.10
2013,03,02,12,48,7.10
2013,03,02,12,49,7.20
2013,03,02,12,50,7.20
2013,03,02,12,51,7.30
2013,03,02,12,52,7.30
2013,03,02,12,53,7.30
2013,03,02,12,54,7.30
2013,03,02,12,55,7.30
2013,03,02,12,56,7.30
2013,03,02,12,57,7.30
2013,03,02,12,58,7.30
2013,03,02,12,59,7.30
2013,03,02,13,00,7.30
2013,03,02,13,01,7.30
2013,03,02,13,02,7.30
2013,03,02,13,03,7.30
2013,03,02,13,04,7.30
2013,03,02,13,05,7.20
2013,03,02,13,06,7.20
2013,03,02,13,07,7.20
2013,03,02,13,08,7.30
2013,03,02,13,09,7.30
2013,03,02,13,10,7.30
2013,03,02,13,11,7.30
2013,03,02,13,12,7.30
2013,03,02,13,13,7.20
2013,03,02,13,14,7.20
2013,03,02,13,15,7.20
2013,03,02,13,16,7.30
2013,03,02,13,17,7.30
2013,03,02,13,18,7.30
2013,03,02,13,19,7.30
2013,03,02,13,20,7.30
2013,03,02,13,21,7.20
2013,03,02,13,22,7.20
2013,03,02,13,23,7.30
2013,03,02,13,24,7.30
2013,03,02,13,25,7.30
2013,03,02,13,26,7.30
2013,03,02,13,27,7.30
2013,03,02,13,28,7.30
2013,03,02,13,29,7.40
2013,03,02,13,30,7.40
2013,03,02,13,31,7.40
2013,03,02,13,32,7.40
2013,03,02,13,33,7.50
2013,03,02,13,34,7.40
2013,03,02,13,35,7.40
2013,03,02,13,36,7.40
2013,03,02,13,37,7.40
2013,03,02,13,38,7.50
2013,03,02,13,39,7.50
2013,03,02,13,40,7.50
2013,03,02,13,41,7.50
2013,03,02,13,42,7.60
2013,03,02,13,43,7.50
2013,03,02,13,44,7.40
2013,03,02,13,45,7.40
2013,03,02,13,46,7.40
2013,03,02,13,47,7.40
2013,03,02,13,48,7.30
2013,03,02,13,49,7.30
2013,03,02,13,50,7.30
2013,03,02,13,51,7.30
2013,03,02,13,52,7.30
2013,03,02,13,53,7.30
2013,03,02,13,54,7.30
2013,03,02,13,55,7.30
2013,03,02,13,56,7.20
2013,03,02,13,57,7.20
2013,03,02,13,58,7.20
2013,03,02,13,59,7.10
2013,03,02,14,00,7.10
2013,03,02,14,01,7.10
2013,03,02,14,02,7.10
2013,03,02,14,03,7.10
2013,03,02,14,04,7.10
2013,03,02,14,05,7.00
2013,03,02,14,06,7.00
2013,03,02,14,07,7.00
2013,03,02,14,08,6.90
2013,03,02,14,09,7.00
2013,03,02,14,10,7.00
2013,03,02,14,11,7.00
2013,03,02,14,12,7.00
2013,03,02,14,13,7.00
2013,03,02,14,14,7.00
2013,03,02,14,15,6.90
2013,03,02,14,16,6.90
2013,03,02,14,17,6.90
2013,03,02,14,18,6.90
2013,03,02,14,19,6.90
2013,03,02,14,20,6.90
2013,03,02,14,21,6.90
2013,03,02,14,22,6.90
2013,03,02,14,23,6.90
2013,03,02,14,24,6.90
2013,03,02,14,25,7.00
2013,03,02,14,26,7.00
2013,03,02,14,27,7.10
2013,03,02,14,28,7.20
2013,03,02,14,29,7.20
2013,03,02,14,30,7.30
2013,03,02,14,31,7.30
2013,03,02,14,32,7.40
2013,03,02,14,33,7.50
2013,03,02,14,34,7.50
2013,03,02,14,35,7.60
2013,03,02,14,36,7.70
2013,03,02,14,37,7.70
2013,03,02,14,38,7.80
2013,03,02,14,39,7.80
2013,03,02,14,40,7.80
2013,03,02,14,41,7.80
2013,03,02,14,42,7.80
2013,03,02,14,43,7.90
2013,03,02,14,44,7.90
2013,03,02,14,45,7.90
2013,03,02,14,46,7.90
2013,03,02,14,47,7.90
2013,03,02,14,48,7.90
2013,03,02,14,49,7.90
2013,03,02,14,50,7.90
2013,03,02,14,51,7.80
2013,03,02,14,52,7.80
2013,03,02,14,53,7.80
2013,03,02,14,54,7.80
2013,03,02,14,55,7.80
2013,03,02,14,56,7.80
2013,03,02,14,57,7.70
2013,03,02,14,58,7.70
2013,03,02,14,59,7.70
2013,03,02,15,00,7.60
2013,03,02,15,01,7.60
2013,03,02,15,02,7.60
2013,03,02,15,03,7.50
2013,03,02,15,04,7.40
2013,03,02,15,05,7.40
2013,03,02,15,06,7.30
2013,03,02,15,07,7.30
2013,03,02,15,08,7.30
2013,03,02,15,09,7.30
2013,03,02,15,10,7.20
2013,03,02,15,11,7.20
2013,03,02,15,12,7.20
2013,03,02,15,13,7.20
2013,03,02,15,14,7.20
2013,03,02,15,15,7.20
2013,03,02,15,16,7.20
2013,03,02,15,17,7.20
2013,03,02,15,18,7.20
2013,03,02,15,19,7.20
2013,03,02,15,20,7.30
2013,03,02,15,21,7.30
2013,03,02,15,22,7.30
2013,03,02,15,23,7.30
2013,03,02,15,24,7.40
2013,03,02,15,25,7.50
2013,03,02,15,26,7.60
2013,03,02,15,27,7.70
2013,03,02,15,28,7.80
2013,03,02,15,29,7.80
2013,03,02,15,30,7.80
2013,03,02,15,31,7.80
2013,03,02,15,32,7.70
2013,03,02,15,33,7.70
2013,03,02,15,34,7.60
2013,03,02,15,35,7.60
2013,03,02,15,36,7.60
2013,03,02,15,37,7.60
2013,03,02,15,38,7.70
2013,03,02,15,39,7.70
2013,03,02,15,40,7.80
2013,03,02,15,41,7.80
2013,03,02,15,42,7.80
2013,03,02,15,43,7.90
2013,03,02,15,44,8.00
2013,03,02,15,45,8.10
2013,03,02,15,46,8.20
2013,03,02,15,47,8.20
2013,03,02,15,48,8.20
2013,03,02,15,49,8.20
2013,03,02,15,50,8.30
2013,03,02,15,51,8.30
2013,03,02,15,52,8.40
2013,03,02,15,53,8.50
2013,03,02,15,54,8.50
2013,03,02,15,55,8.50
2013,03,02,15,56,8.40
2013,03,02,15,57,8.40
2013,03,02,15,58,8.30
2013,03,02,15,59,8.30
2013,03,02,16,00,8.30
2013,03,02,16,01,8.30
2013,03,02,16,02,8.30
2013,03,02,16,03,8.40
2013,03,02,16,04,8.40
2013,03,02,16,05,8.40
2013,03,02,16,06,8.40
2013,03,02,16,07,8.50
2013,03,02,16,08,8.40
2013,03,02,16,09,8.40
2013,03,02,16,10,8.50
2013,03,02,16,11,8.50
2013,03,02,16,12,8.40
2013,03,02,16,13,8.40
2013,03,02,16,14,8.30
2013,03,02,16,15,8.30
2013,03,02,16,16,8.30
2013,03,02,16,17,8.30
2013,03,02,16,18,8.20
2013,03,02,16,19,8.20
2013,03,02,16,20,8.20
2013,03,02,16,21,8.20
2013,03,02,16,22,8.20
2013,03,02,16,23,8.20
2013,03,02,16,24,8.20
2013,03,02,16,25,8.20
2013,03,02,16,26,8.20
2013,03,02,16,27,8.10
2013,03,02,16,28,8.10
2013,03,02,16,29,8.10
2013,03,02,16,30,8.10
2013,03,02,16,31,8.00
2013,03,02,16,32,8.00
2013,03,02,16,33,7.90
2013,03,02,16,34,7.90
2013,03,02,16,35,7.90
2013,03,02,16,36,7.90
2013,03,02,16,37,7.80
2013,03,02,16,38,7.80
2013,03,02,16,39,7.80
2013,03,02,16,40,7.80
2013,03,02,16,41,7.80
2013,03,02,16,42,7.80
2013,03,02,16,43,7.80
2013,03,02,16,44,7.70
2013,03,02,16,45,7.70
2013,03,02,16,46,7.70
2013,03,02,16,47,7.70
2013,03,02,16,48,7.70
2013,03,02,16,49,7.70
2013,03,02,16,50,7.70
2013,03,02,16,51,7.60
2013,03,02,16,52,7.60
2013,03,02,16,53,7.60
2013,03,02,16,54,7.60
2013,03,02,16,55,7.60
2013,03,02,16,56,7.60
2013,03,02,16,57,7.60
2013,03,02,16,58,7.50
2013,03,02,16,59,7.50
2013,03,02,17,00,7.50
2013,03,02,17,01,7.40
2013,03,02,17,02,7.30
2013,03,02,17,03,7.30
2013,03,02,17,04,7.30
2013,03,02,17,05,7.20
2013,03,02,17,06,7.10
2013,03,02,17,07,7.10
2013,03,02,17,08,7.00
2013,03,02,17,09,7.00
2013,03,02,17,10,6.90
2013,03,02,17,11,6.90
2013,03,02,17,12,6.80
2013,03,02,17,13,6.80
2013,03,02,17,14,6.80
2013,03,02,17,15,6.80
2013,03,02,17,16,6.80
2013,03,02,17,17,6.80
2013,03,02,17,18,6.80
2013,03,02,17,19,6.80
2013,03,02,17,20,6.80
2013,03,02,17,21,6.80
2013,03,02,17,22,6.80
2013,03,02,17,23,6.80
2013,03,02,17,24,6.80
2013,03,02,17,25,6.80
2013,03,02,17,26,6.80
2013,03,02,17,27,6.80
2013,03,02,17,28,6.80
2013,03,02,17,29,6.80
2013,03,02,17,30,6.80
2013,03,02,17,31,6.80
2013,03,02,17,32,6.80
2013,03,02,17,33,6.80
2013,03,02,17,34,6.80
2013,03,02,17,35,6.80
2013,03,02,17,36,6.80
2013,03,02,17,37,6.80
2013,03,02,17,38,6.80
2013,03,02,17,39,6.80
2013,03,02,17,40,6.80
2013,03,02,17,41,6.80
2013,03,02,17,42,6.80
2013,03,02,17,43,6.80
2013,03,02,17,44,6.80
2013,03,02,17,45,6.80
2013,03,02,17,46,6.80
2013,03,02,17,47,6.80
2013,03,02,17,48,6.80
2013,03,02,17,49,6.80
2013,03,02,17,50,6.70
2013,03,02,17,51,6.70
2013,03,02,17,52,6.70
2013,03,02,17,53,6.70
2013,03,02,17,54,6.60
2013,03,02,17,55,6.60
2013,03,02,17,56,6.60
2013,03,02,17,57,6.60
2013,03,02,17,58,6.60
2013,03,02,17,59,6.60
2013,03,02,18,00,6.60
2013,03,02,18,01,6.60
2013,03,02,18,02,6.60
2013,03,02,18,03,6.60
2013,03,02,18,04,6.60
2013,03,02,18,05,6.60
2013,03,02,18,06,6.60